Location: Ago
(8.4667°N, 4.4167°E)
Time: 13:35:36
(UTC+00:00)

Cosmos 1674 Rocket - Pass Details

Date: 06 June 2020
Orbit: 603 x 630 km, 82.5° (Epoch: 13 July)

Event Time Altitude Azimuth Distance (km) Brightness Sun altitude
Exits shadow 19:22:41 32° 69° (ENE) 1,054 4.4 -19.5°
Drops below altitude 10° 19:25:50 10° 27° (NNE) 1,969 6.1 -20.2°
Sets 19:28:12 0° 18° (NNE) 2,879 7.1 -20.7°
